Location: Unspecified
(0.0000°N, 0.0000°E)
Time: 07:19:59
(UTC+00:00)

KAITUO 1B - Pass Details

Date: 01 April 2019
Orbit: 497 x 517 km, 97.4° (Epoch: 16 June)

Event Time Altitude Azimuth Distance (km) Brightness Sun altitude
Rises 05:19:18 0° 35° (NE) 2,592 ? -11.2°
Reaches altitude 10° 05:21:43 10° 51° (NE) 1,715 ? -10.6°
Maximum altitude 05:24:34 21° 101° (ESE) 1,174 ? -9.8°
Drops below altitude 10° 05:27:27 10° 152° (SSE) 1,731 ? -9.1°
Sets 05:29:54 0° 168° (SSE) 2,624 ? -8.5°
